NOAA 16 DEB, 42429

Orbit data source: Space-Track

NOAA 16 DEB, 42429 is space debris in SSO originally from a launch on Thu, 21 Sep 2000 UTC launched from the Air Force Western Test Range (AFWTR). Debris objects in space refer to the collection of defunct objects orbiting the Earth. Examples of debris include non-operational satellites, rocket bodies, and fragments generated from explosions, collisions, or faulty payload assembly.

Loading next visibility...
Identifier
42429, 2000-055TZ
Orbit
SSO
Country
Flag of USUS
Related business
Manufacturer
Unknown
Mission
Spacecraft
Bus & Motor
Unknown
Mass
Unknown
Launch date (UTC)
2000-09-21 (26 years ago)
Launch vehicle
Unknown
Launch site
Air Force Western Test Range (AFWTR)
Object type
Payload
Rocket body
Debris
Shape & HBR
Unknown shape, 0.1 m
Radar Cross Section
Small (<0.1 m²)

Expand to show TLE details & history
Last TLE update: 3 days ago

TLE from 3 days ago
0 NOAA 16 DEB
1 42429U 00055TZ  26170.52286861  .00005723  00000-0  19590-2 0  9998
2 42429  98.8278 256.9515 0027455 162.4588 197.7552 14.36420741506598
Epoch: 2026-06-19T12:32Z
TLE epoch observation values (Epoch: 2026-06-19T12:32:55.847Z)
Latitude
-0.00001°
Longitude
160.96818°
Altitude
791.982 km
Speed
7.448 km/s
True Right ascension
17h 07m 48s
True Declination
0° 00' 00"
Sunlit
Object was in full shadow at epoch
Visualization orbit readout
Latitude
Unknown
Longitude
Unknown
Altitude
Unknown
Speed
Unknown
Apparent Right ascension
Unknown
Apparent Declination
Unknown
Sunlit
N/A
Visualization observer readout
Local Sidereal Time
21:36:45
Azimuth
Unknown
Elevation
Unknown
Doppler factor
Unknown
Orbital elements
Apogee altitude
787.11 km
Perigee altitude
747.873 km
Semi-major axis
7,145.628 km
Eccentricity
0.00275
Inclination
98.8278°
RAAN
256.9515°
Arg. of periapsis
162.4588°
True anomaly
197.65957°
Mean anomaly
197.7552°
Eccentric anomaly
197.70735°
Mean motion
3.59321 °/min
Orbital period
100.19 mins
BSTAR
0.001959
Loading maneuver chart data...
Computing Atmospheric mass density...
Loading historical data...
Loading historical data...
Loading historical data...
Loading historical data...
Loading historical data...
Loading historical data...
Loading historical data...

Documentation

Showing up to 5 results
|